Dewpoint
-8 -6 -5 -6 -7 -5 -1 2 4 3 2 4 5 5 4 4 4 4 3 3 3 3 3 3 3 3 2 3 3 2 2 2 3 2 2 3 3 1 -1 -1 1 2 3 3
-6 -5 -8 -7 -4 -0 1 3 5 4 3 4 4 4 3 3 3 4 4 4 3 4 3 1 1 2 2 0 -1 -1 -1 0 2 3 2 2 2 -0 -1 -1 -2 -2 -1 1
-4 -6 -7 -6 -6 -2 -3 2 3 4 3 3 3 4 4 3 3 3 3 3 2 2 1 -1 -2 -0 -0 -0 -0 1 1 2 2 2 2 2 -0 -2 -3 -5 -7 -8 -7 -5
-5 -6 -5 -3 -3 -5 -4 -4 2 4 4 6 3 5 4 3 3 1 1 1 0 0 0 0 -0 -0 -1 -1 -2 -1 1 0 -1 -1 -0 -1 -3 -4 -6 -6 -7 -8 -7 -6
-5 -6 -4 -2 -3 -4 -4 -3 3 1 3 4 4 4 2 3 4 3 1 1 1 -1 -2 -3 -3 -2 -2 -3 -2 -1 -2 -4 -6 -5 -6 -8 -9 -9 -9 -9 -9 -8 -8 -7
-5 -6 -5 -5 -4 -1 -0 1 2 2 2 5 5 3 2 4 3 3 1 0 -1 -3 -4 -4 -4 -3 -3 -3 -6 -9 -10 -10 -11 -11 -11 -11 -10 -10 -10 -9 -8 -6 -7 -7
-6 -6 -7 -4 -2 -1 -2 -0 3 4 3 5 5 4 2 3 2 1 1 -2 -3 -3 -3 -3 -3 -3 -7 -11 -10 -10 -11 -11 -11 -10 -10 -10 -9 -8 -8 -8 -7 -7 -7 -6
-3 -2 -2 -2 1 1 3 -2 2 4 6 5 4 5 3 2 1 -0 -2 -3 -3 -4 -3 -3 -7 -10 -11 -11 -10 -11 -11 -10 -10 -10 -10 -9 -7 -7 -7 -6 -4 -4 -4 -4
-1 -1 1 1 1 1 3 5 2 4 3 4 5 3 0 0 -1 -2 -3 -3 -3 -6 -10 -11 -11 -10 -11 -10 -10 -10 -11 -11 -11 -9 -8 -8 -8 -4 -3 -4 -4 -5 -5 -5
-2 -0 1 2 -0 1 2 2 4 2 1 1 4 4 2 1 0 -1 -1 -3 -7 -9 -9 -10 -11 -11 -11 -10 -10 -11 -12 -11 -9 -8 -8 -6 -3 -4 -4 -5 -5 -5 -6 -6
-2 -1 2 1 3 4 2 3 3 2 -2 -0 3 1 0 1 1 1 -2 -6 -7 -8 -9 -10 -10 -11 -10 -11 -11 -12 -10 -8 -8 -8 -4 -2 -2 -3 -3 -4 -4 -4 -5 -5
1 3 5 4 2 2 3 3 0 1 4 -2 -1 -0 -2 0 0 -4 -5 -6 -8 -9 -9 -10 -11 -11 -11 -11 -12 -10 -7 -7 -5 -2 -2 -2 -3 -3 -4 -5 -5 -5 -5 -6
0 3 5 3 2 2 4 4 2 -1 -2 0 -3 -1 -3 -3 -4 -4 -5 -6 -7 -7 -10 -11 -11 -11 -11 -11 -11 -4 -6 -4 -1 -2 -3 -4 -4 -5 -5 -6 -6 -6 -5 -6
2 3 2 2 2 2 3 3 3 -1 -2 0 -2 1 2 1 -2 -3 -5 -5 -6 -7 -10 -10 -11 -11 -11 -11 -2 -3 -0 -1 -3 -3 -3 -5 -5 -6 -6 -6 -6 -6 -6 -7
1 4 3 3 3 2 3 3 1 0 -1 0 2 4 3 2 -1 -4 -3 -5 -5 -9 -10 -10 -11 -11 -10 -10 -2 0 -0 -1 -3 -4 -4 -5 -5 -6 -6 -6 -6 -6 -7 -7
2 4 3 4 2 2 3 2 2 3 4 4 3 3 2 -0 -2 -1 -1 -4 -8 -9 -10 -10 -11 -11 -10 -9 -8 -0 -0 -1 -2 -3 -5 -5 -6 -6 -6 -7 -6 -7 -7 -7
3 3 3 6 3 1 3 4 3 3 2 3 3 3 1 2 2 1 -3 -6 -9 -9 -9 -10 -10 -10 -10 -8 -7 -0 -1 -2 -3 -4 -4 -5 -6 -6 -6 -6 -6 -7 -7 -7
3 3 3 6 5 4 4 3 2 3 2 1 1 1 1 2 2 -1 -5 -8 -8 -8 -9 -10 -10 -11 -8 -8 -6 -0 -1 -2 -3 -4 -5 -5 -6 -6 -6 -6 -6 -7 -7 -7
3 3 4 5 4 4 5 3 3 2 1 0 0 1 2 2 1 -1 -5 -7 -8 -8 -9 -10 -10 -11 -8 -8 -5 -1 -1 -2 -3 -4 -5 -6 -6 -6 -6 -7 -7 -7 -7 -7
2 2 3 1 2 1 -0 2 2 2 1 -2 1 2 2 3 3 1 -4 -7 -7 -7 -8 -10 -13 -11 -9 -7 -6 -1 -1 -2 -3 -4 -5 -6 -6 -6 -7 -7 -7 -7 -7 -7
2 1 2 -1 4 2 2 2 3 3 -0 -1 1 2 3 3 4 -2 -5 -5 -6 -7 -8 -12 -15 -11 -9 -6 -5 -1 -1 -2 -3 -4 -6 -7 -6 -6 -6 -7 -8 -7 -7 -7
2 2 3 1 0 -0 2 3 1 -0 -0 1 2 3 3 3 -1 -4 -5 -5 -5 -6 -9 -14 -15 -12 -9 -7 -4 -1 -0 -1 -2 -4 -5 -8 -6 -5 -5 -6 -6 -7 -7 -6
3 3 4 2 1 2 3 2 1 1 3 2 3 2 3 2 -4 -4 -4 -5 -5 -6 -10 -13 -14 -12 -10 -9 -6 -3 0 -1 -2 -3 -5 -6 -5 -5 -5 -5 -8 -6 -6 -6
3 2 3 1 3 3 3 2 3 4 3 2 3 -1 -2 -3 -3 -3 -4 -5 -6 -8 -11 -11 -13 -11 -11 -12 -10 -6 0 0 -1 -3 -4 -4 -5 -4 -4 -4 -5 -6 -9 -8
2 2 3 3 3 3 3 3 2 0 1 2 -2 -3 -3 -2 -3 -3 -5 -3 -5 -8 -10 -9 -10 -10 -10 -12 -13 -11 -3 0 -0 -1 -2 -4 -3 -3 -3 -4 -4 -5 -5 -5
2 2 1 4 4 4 4 2 2 1 -0 -2 -2 -2 -2 -2 -2 -3 -3 -2 -2 -4 -6 -7 -8 -8 -9 -11 -13 -13 -12 -2 0 0 -1 -2 -3 -3 -3 -3 -3 -4 -4 -4
Wind_Speed
7 7 3 3 2 5 8 7 13 2 4 8 5 6 6 8 6 12 12 10 8 7 5 4 8 9 11 8 9 14 13 15 17 14 18 23 28 26 25 28 26 26 27 29
7 4 2 3 7 10 11 15 4 4 6 7 2 6 2 7 3 5 5 4 3 2 3 6 7 8 8 10 12 12 13 15 18 21 25 28 29 30 30 30 31 33 34 35
6 2 2 3 5 10 2 6 5 6 5 4 3 4 4 4 6 2 2 3 4 4 5 8 10 10 11 14 16 16 18 21 24 25 28 29 30 31 33 33 32 31 30 30
7 4 4 6 5 3 3 5 8 14 4 2 2 2 2 5 6 3 6 5 5 8 11 13 15 16 15 16 18 20 22 22 23 25 29 30 31 33 33 33 33 32 30 30
1 2 4 6 1 2 2 4 8 4 5 4 6 4 4 4 5 6 8 8 9 12 15 16 16 14 16 19 20 18 22 24 24 25 28 30 32 33 34 35 35 33 32 31
4 2 3 1 2 3 5 7 7 5 3 3 2 3 4 2 4 6 8 10 11 14 16 16 16 18 21 19 21 23 24 25 25 25 27 29 31 32 31 30 29 35 34 32
4 4 4 2 1 4 5 4 3 3 4 3 1 3 5 4 5 5 8 9 12 17 21 21 20 20 20 23 24 24 26 27 26 29 30 32 31 30 31 32 33 36 36 38
5 1 5 4 2 2 3 4 4 6 4 3 3 2 2 4 10 6 9 13 18 20 21 17 17 21 24 26 24 27 27 28 30 33 32 29 30 33 35 36 36 34 30 28
4 2 1 6 3 2 2 3 4 6 3 2 1 4 6 4 4 8 13 18 21 17 18 19 21 22 26 24 25 27 30 32 32 31 30 32 38 34 26 25 27 27 27 27
5 4 2 1 1 9 4 3 3 3 3 1 3 1 3 3 6 8 14 19 16 17 20 20 21 24 26 25 26 30 32 32 30 27 33 38 25 20 20 26 26 27 27 27
3 4 2 3 5 2 3 3 5 5 3 5 3 5 5 5 4 6 13 14 18 21 21 22 24 25 26 25 29 33 30 27 26 35 37 27 23 24 27 26 26 25 24 21
1 4 3 1 1 3 3 3 4 4 4 1 3 4 3 6 6 6 11 16 18 20 23 23 25 27 25 28 32 32 26 26 35 32 24 23 25 28 28 26 22 21 20 20
4 2 3 5 3 2 3 2 2 3 3 2 4 4 7 4 7 9 12 17 20 23 23 25 26 24 27 31 33 30 27 35 28 25 22 25 27 26 23 24 23 21 19 19
5 3 2 5 3 3 4 2 2 2 3 4 2 1 6 8 6 14 17 19 23 25 24 26 25 26 28 31 33 29 33 27 25 26 23 25 27 24 24 23 22 17 17 18
4 4 3 6 6 7 4 5 4 4 3 4 3 3 4 6 7 12 16 21 25 24 25 26 27 27 31 32 34 31 30 25 24 25 25 27 26 24 24 24 20 16 17 18
3 4 2 6 6 10 13 9 7 7 5 6 5 4 9 9 13 18 17 20 21 23 25 28 26 28 32 33 36 34 29 24 21 24 26 28 27 24 24 23 16 18 18 15
3 5 2 3 4 3 9 7 6 4 4 2 5 2 9 7 15 17 14 17 18 21 25 27 25 28 30 33 37 33 29 23 23 26 25 28 26 25 22 20 16 18 18 18
4 3 3 3 2 3 1 4 1 2 3 5 3 5 9 10 17 9 13 15 18 21 25 25 25 29 28 33 39 32 27 22 23 24 26 27 26 26 22 19 13 17 19 16
8 4 4 3 3 2 1 1 1 2 2 1 3 9 14 20 15 5 14 14 17 20 23 24 25 27 27 32 39 34 28 24 23 24 26 26 26 25 22 20 18 15 17 16
8 8 3 2 4 4 4 0 1 1 3 6 9 12 14 15 5 5 16 16 18 19 23 25 26 25 26 31 37 37 29 24 22 24 25 22 24 25 22 20 18 15 16 13
3 3 3 2 4 2 1 2 1 1 4 10 12 16 17 5 9 11 12 15 17 19 23 25 25 26 26 30 35 39 29 24 21 23 23 22 24 25 24 21 16 16 15 15
3 3 3 3 4 1 2 1 1 4 4 9 17 18 22 19 8 9 13 17 18 21 24 25 26 25 27 29 32 38 29 22 18 22 21 19 21 25 27 23 17 15 15 16
2 1 1 1 2 2 3 0 4 5 10 14 18 19 16 9 7 11 15 17 17 20 22 23 26 24 27 30 30 35 29 22 18 20 19 19 19 22 23 27 24 17 14 14
1 1 1 3 2 2 3 3 7 11 13 13 13 12 7 5 8 12 15 16 18 20 22 23 26 26 28 30 29 31 30 25 19 18 17 18 19 21 24 19 21 23 19 17
1 3 0 2 3 3 6 10 11 8 8 5 6 9 9 9 11 13 14 17 19 20 21 22 25 25 27 28 30 30 32 26 23 18 20 18 18 21 22 21 17 18 19 19
0 3 2 2 3 2 7 11 9 9 10 10 9 9 9 9 11 13 13 15 18 20 20 22 23 25 26 27 28 30 30 33 26 22 19 20 20 20 23 22 20 18 18 18
Wind_Direction
29 69 83 336 359 97 95 90 111 147 175 61 47 76 27 28 49 79 79 79 80 61 50 24 6 351 2 16 340 325 310 294 287 288 286 286 289 295 290 288 291 286 285 275
46 75 321 69 66 93 108 115 94 66 79 87 121 66 13 29 13 48 47 36 25 346 355 13 1 330 311 323 320 314 307 301 289 287 287 284 280 281 284 283 282 283 281 278
108 125 35 91 70 107 98 127 165 142 91 76 148 39 5 337 14 349 300 328 324 338 322 336 330 316 310 318 314 302 294 292 293 289 285 285 284 284 286 288 291 288 285 280
84 2 97 72 78 98 94 119 123 135 108 140 307 230 349 332 325 304 301 304 330 340 322 311 313 310 310 318 316 304 293 293 292 288 284 284 284 285 287 287 285 282 278 273
203 91 88 76 357 153 145 110 136 118 93 104 6 78 260 347 342 322 322 332 329 330 325 334 330 320 318 313 308 302 300 299 300 295 291 291 291 292 292 291 289 287 281 273
99 116 78 144 45 35 133 84 59 66 77 48 327 112 303 329 293 300 327 323 326 330 330 329 324 317 319 320 316 313 310 309 310 305 301 299 297 296 292 291 294 296 290 286
24 353 336 73 105 25 69 70 39 32 12 241 250 95 228 287 312 302 300 309 316 315 323 328 326 327 325 323 321 319 321 319 313 308 306 305 298 295 295 292 295 290 290 289
136 16 359 2 77 181 72 132 146 191 196 200 251 148 211 272 301 299 307 314 324 336 337 339 338 330 328 326 326 326 321 316 313 311 309 304 300 299 297 295 296 298 296 294
128 133 151 70 45 55 188 62 134 105 11 103 249 308 335 349 337 315 313 338 339 351 350 339 333 331 332 328 326 325 321 319 315 310 307 305 304 302 304 307 305 304 302 301
192 119 5 124 33 35 94 114 87 26 126 214 326 225 227 319 298 304 331 340 348 344 338 335 337 335 334 330 328 326 324 321 315 309 309 310 306 304 310 309 304 299 297 295
134 100 299 48 26 294 3 75 55 110 112 150 141 269 214 230 280 318 337 348 341 336 335 335 338 333 334 332 330 331 330 323 312 313 317 316 310 304 301 304 301 298 302 300
73 113 87 156 259 79 83 126 134 124 223 79 128 275 245 257 325 25 358 352 347 346 341 340 335 334 335 335 337 338 334 321 319 322 326 322 314 314 314 313 308 310 303 301
168 79 95 354 346 59 80 97 129 127 87 199 117 254 353 54 31 6 349 347 342 341 343 343 339 340 340 342 344 343 331 324 331 334 329 328 331 330 325 319 317 311 309 308
93 77 147 185 160 123 113 39 191 55 98 170 201 357 347 352 347 345 345 340 341 342 345 341 342 344 345 347 347 345 338 340 345 345 336 338 337 335 331 326 322 326 317 315
88 91 80 51 68 86 88 67 88 88 144 102 191 102 326 327 308 329 334 338 338 343 345 346 345 345 347 350 351 344 341 345 349 351 344 344 342 342 338 332 326 331 329 323
24 118 23 53 59 87 68 33 59 50 42 63 71 37 348 9 344 334 343 343 342 343 345 347 346 347 349 351 352 343 342 339 343 345 350 350 347 342 340 344 347 342 341 339
70 129 85 102 197 48 52 18 28 64 52 55 65 317 339 334 339 344 345 343 343 346 346 347 349 349 350 352 353 347 346 338 338 352 351 350 351 348 343 348 345 348 348 338
106 84 64 118 359 51 250 316 33 71 67 23 24 314 343 336 342 352 353 348 347 348 347 352 351 350 353 354 356 356 353 346 347 354 354 354 357 355 356 358 355 1 2 3
52 88 88 114 76 147 60 348 16 9 339 298 314 347 353 356 357 11 356 352 352 350 352 355 353 352 354 357 2 5 3 357 360 1 0 4 3 6 10 15 12 15 9 13
40 59 77 59 97 161 237 220 182 310 356 316 355 357 352 356 8 286 345 353 353 356 356 357 356 358 358 1 4 9 9 6 9 9 6 13 14 16 20 19 20 22 11 18
16 7 75 20 91 6 138 245 170 70 232 318 347 348 345 342 321 325 347 354 358 358 358 359 3 4 2 2 6 12 11 11 14 11 10 34 28 25 25 24 22 18 26 36
39 32 34 24 76 324 218 253 208 225 312 331 331 337 336 342 354 351 356 357 356 359 0 5 7 10 9 7 8 12 13 12 17 14 19 38 33 25 25 27 26 29 30 37
79 52 79 93 165 261 314 263 56 307 318 318 323 329 334 357 9 6 4 4 5 3 5 9 10 13 15 12 11 14 14 12 17 15 25 31 35 22 20 26 36 37 34 37
102 40 114 54 41 349 75 58 312 317 301 308 328 349 45 48 26 14 11 14 11 8 9 9 11 17 17 14 15 17 16 13 15 17 21 27 31 24 21 25 34 42 41 42
348 355 24 54 16 77 46 349 320 319 298 342 57 56 56 36 34 19 24 22 17 14 16 13 15 18 19 16 18 17 19 16 13 14 16 27 25 16 22 26 32 35 37 44
301 163 114 92 32 346 332 3 23 78 83 89 83 63 52 41 31 20 21 20 17 16 16 17 17 18 19 19 20 19 19 18 13 15 16 17 21 26 33 37 41 46 45 41
Height
1507 1515 1521 1516 1514 1515 1524 1534 1545 1550 1547 1551 1559 1559 1558 1556 1554 1551 1551 1551 1551 1551 1550 1549 1548 1548 1546 1544 1543 1542 1543 1544 1543 1540 1539 1537 1535 1533 1532 1530 1529 1528 1526 1525
1514 1524 1518 1516 1517 1520 1526 1537 1551 1552 1550 1553 1561 1562 1560 1558 1556 1555 1555 1555 1553 1552 1551 1550 1548 1546 1545 1544 1543 1542 1540 1540 1538 1535 1533 1531 1528 1526 1525 1524 1523 1522 1520 1518
1520 1523 1519 1518 1523 1526 1531 1538 1545 1548 1552 1556 1558 1564 1563 1559 1557 1556 1556 1556 1554 1553 1551 1549 1547 1545 1544 1543 1541 1538 1537 1535 1533 1531 1527 1525 1522 1519 1517 1516 1514 1512 1511 1509
1522 1523 1523 1523 1526 1528 1533 1530 1537 1544 1552 1563 1558 1569 1565 1564 1560 1557 1556 1555 1554 1552 1550 1547 1545 1543 1541 1539 1538 1535 1532 1530 1528 1525 1522 1518 1515 1511 1510 1507 1504 1503 1502 1500
1529 1526 1527 1528 1527 1526 1531 1530 1538 1544 1553 1560 1562 1568 1569 1565 1562 1558 1556 1555 1554 1551 1547 1545 1543 1541 1539 1536 1534 1531 1528 1525 1522 1519 1515 1511 1507 1505 1501 1498 1495 1493 1492 1490
1525 1525 1526 1526 1526 1527 1529 1536 1542 1549 1556 1573 1564 1570 1581 1567 1564 1559 1556 1554 1552 1549 1546 1544 1542 1539 1536 1534 1531 1527 1524 1520 1517 1513 1509 1505 1500 1496 1492 1489 1486 1484 1482 1481
1530 1531 1528 1528 1530 1530 1533 1540 1565 1564 1578 1575 1560 1569 1574 1562 1559 1558 1556 1553 1551 1549 1546 1542 1539 1536 1534 1531 1527 1523 1519 1515 1511 1507 1502 1498 1493 1488 1484 1480 1476 1473 1471 1469
1539 1545 1534 1529 1533 1533 1536 1540 1558 1558 1568 1562 1558 1562 1564 1559 1557 1557 1555 1553 1551 1547 1543 1540 1538 1535 1531 1527 1523 1518 1514 1509 1505 1500 1495 1491 1486 1481 1477 1472 1468 1464 1460 1458
1539 1540 1533 1533 1534 1534 1537 1547 1546 1560 1569 1571 1565 1569 1560 1558 1557 1555 1553 1552 1549 1545 1542 1539 1537 1533 1529 1524 1519 1514 1509 1504 1499 1493 1488 1483 1478 1472 1468 1465 1461 1458 1455 1452
1532 1540 1535 1534 1534 1535 1535 1543 1553 1563 1594 1595 1576 1569 1577 1560 1558 1555 1554 1552 1549 1546 1542 1539 1535 1531 1526 1521 1516 1511 1505 1498 1493 1488 1483 1476 1470 1466 1463 1460 1456 1452 1449 1447
1528 1537 1541 1536 1543 1545 1544 1547 1556 1563 1585 1597 1585 1588 1563 1558 1556 1557 1555 1552 1549 1545 1541 1537 1533 1529 1524 1519 1514 1507 1500 1494 1488 1482 1475 1469 1466 1462 1457 1452 1448 1444 1441 1440
1528 1540 1551 1545 1542 1543 1544 1551 1557 1569 1573 1594 1586 1588 1556 1556 1556 1555 1554 1551 1548 1545 1541 1536 1531 1526 1521 1516 1509 1502 1496 1490 1483 1475 1470 1465 1461 1456 1450 1446 1442 1439 1436 1433
1527 1540 1554 1550 1545 1542 1544 1552 1553 1561 1570 1584 1593 1590 1559 1556 1555 1554 1552 1550 1547 1543 1539 1534 1529 1524 1519 1512 1505 1498 1492 1485 1477 1471 1466 1461 1456 1451 1446 1441 1437 1434 1431 1429
1526 1540 1540 1547 1540 1544 1548 1551 1553 1554 1577 1579 1587 1570 1562 1559 1556 1553 1551 1549 1546 1542 1538 1532 1527 1522 1517 1510 1502 1495 1488 1480 1474 1469 1464 1458 1453 1447 1443 1438 1434 1429 1426 1424
1531 1542 1545 1548 1546 1548 1555 1556 1554 1556 1559 1566 1566 1564 1562 1559 1556 1553 1551 1548 1544 1541 1536 1531 1526 1520 1514 1507 1499 1491 1485 1478 1473 1468 1462 1456 1451 1445 1440 1435 1430 1426 1423 1420
1533 1545 1545 1551 1551 1551 1557 1560 1558 1559 1561 1562 1563 1564 1561 1556 1555 1552 1550 1547 1544 1540 1535 1530 1525 1519 1513 1506 1498 1489 1482 1476 1472 1467 1461 1455 1449 1443 1438 1432 1428 1425 1421 1417
1539 1544 1546 1551 1552 1549 1561 1567 1568 1567 1566 1564 1565 1565 1562 1558 1555 1552 1550 1547 1544 1540 1535 1529 1524 1519 1512 1505 1497 1486 1480 1475 1471 1466 1461 1454 1448 1442 1436 1431 1427 1424 1420 1416
1541 1545 1551 1553 1558 1567 1571 1569 1569 1568 1566 1566 1565 1564 1561 1559 1555 1552 1550 1547 1544 1539 1535 1529 1524 1518 1512 1506 1497 1486 1479 1475 1470 1466 1460 1454 1448 1442 1436 1430 1426 1424 1420 1415
1542 1547 1557 1557 1565 1572 1568 1569 1569 1569 1569 1566 1565 1563 1560 1557 1554 1552 1551 1548 1544 1540 1535 1530 1525 1519 1513 1506 1497 1487 1480 1476 1471 1466 1461 1455 1449 1442 1436 1431 1427 1424 1420 1416
1549 1550 1558 1569 1570 1588 1574 1569 1569 1569 1577 1565 1564 1562 1560 1557 1558 1554 1550 1547 1544 1541 1536 1530 1525 1520 1513 1506 1498 1488 1482 1476 1472 1468 1463 1457 1451 1444 1438 1434 1430 1426 1421 1418
1563 1566 1571 1582 1566 1576 1568 1569 1570 1572 1580 1565 1564 1563 1560 1560 1559 1554 1551 1549 1545 1541 1536 1531 1526 1520 1514 1507 1499 1491 1484 1478 1475 1471 1465 1459 1454 1448 1442 1437 1432 1428 1424 1420
1568 1565 1568 1574 1581 1587 1569 1569 1570 1571 1567 1566 1563 1562 1560 1558 1555 1554 1552 1549 1545 1541 1536 1531 1526 1521 1515 1508 1501 1493 1486 1481 1477 1473 1467 1462 1458 1453 1447 1440 1435 1431 1428 1424
1570 1572 1571 1572 1574 1570 1569 1569 1568 1568 1567 1565 1563 1560 1559 1557 1557 1555 1552 1549 1546 1542 1538 1533 1528 1523 1516 1510 1503 1496 1489 1484 1479 1475 1470 1466 1461 1457 1451 1445 1439 1435 1431 1428
1570 1570 1571 1572 1570 1569 1568 1568 1567 1567 1565 1564 1562 1560 1559 1559 1558 1556 1553 1550 1547 1543 1538 1534 1529 1523 1518 1512 1506 1500 1492 1487 1482 1477 1472 1468 1464 1460 1455 1450 1445 1440 1436 1432
1572 1571 1571 1571 1569 1568 1569 1568 1566 1563 1563 1563 1563 1562 1562 1561 1559 1557 1554 1552 1548 1545 1540 1536 1531 1526 1520 1515 1508 1502 1496 1490 1484 1480 1476 1471 1467 1463 1459 1453 1449 1445 1441 1438
1571 1571 1575 1573 1573 1573 1571 1568 1564 1563 1564 1564 1565 1564 1563 1562 1560 1558 1555 1553 1550 1546 1542 1537 1533 1528 1523 1518 1511 1505 1499 1493 1487 1483 1478 1475 1470 1466 1462 1458 1453 1450 1446 1443